TimeCDT,TemperatureF,Dew PointF,Humidity,Sea Level PressureIn,VisibilityMPH,Wind Direction,Wind SpeedMPH,Gust SpeedMPH,PrecipitationIn,Events,Conditions,WindDirDegrees,DateUTC
12:15 AM,14.0,3.2,62,30.05,10.0,West,5.8,-,N/A,,Clear,260,2013-04-02 05:15:00
12:35 AM,12.2,3.2,67,30.05,10.0,West,6.9,-,N/A,,Clear,260,2013-04-02 05:35:00
12:55 AM,19.4,5.0,54,30.05,10.0,West,5.8,-,N/A,,Clear,270,2013-04-02 05:55:00
1:15 AM,19.4,5.0,54,30.06,10.0,West,4.6,-,N/A,,Clear,280,2013-04-02 06:15:00
1:35 AM,17.6,5.0,58,30.06,10.0,West,6.9,-,N/A,,Clear,280,2013-04-02 06:35:00
1:55 AM,17.6,5.0,58,30.06,10.0,West,5.8,-,N/A,,Clear,270,2013-04-02 06:55:00
2:15 AM,17.6,5.0,58,30.06,10.0,West,4.6,-,N/A,,Clear,280,2013-04-02 07:15:00
2:35 AM,17.6,5.0,58,30.06,10.0,West,5.8,-,N/A,,Clear,280,2013-04-02 07:35:00
2:55 AM,17.6,5.0,58,30.06,10.0,West,5.8,-,N/A,,Clear,280,2013-04-02 07:55:00
3:15 AM,17.6,6.8,63,30.06,10.0,West,5.8,-,N/A,,Clear,280,2013-04-02 08:15:00
3:35 AM,17.6,6.8,63,30.06,10.0,West,6.9,-,N/A,,Clear,280,2013-04-02 08:35:00
3:55 AM,15.8,6.8,68,30.06,10.0,West,5.8,-,N/A,,Clear,280,2013-04-02 08:55:00
4:15 AM,17.6,8.6,68,30.06,10.0,WNW,6.9,-,N/A,,Clear,290,2013-04-02 09:15:00
4:35 AM,17.6,8.6,68,30.06,10.0,West,5.8,-,N/A,,Clear,280,2013-04-02 09:35:00
4:55 AM,17.6,8.6,68,30.07,10.0,West,6.9,-,N/A,,Clear,280,2013-04-02 09:55:00
5:15 AM,15.8,8.6,73,30.07,10.0,WNW,5.8,-,N/A,,Clear,290,2013-04-02 10:15:00
5:35 AM,15.8,8.6,73,30.08,10.0,WNW,8.1,-,N/A,,Clear,290,2013-04-02 10:35:00
5:55 AM,15.8,10.4,79,30.09,10.0,West,5.8,-,N/A,,Clear,280,2013-04-02 10:55:00
6:15 AM,15.8,10.4,79,30.09,10.0,WNW,6.9,-,N/A,,Clear,290,2013-04-02 11:15:00
6:55 AM,15.8,10.4,79,30.10,10.0,WNW,6.9,-,N/A,,Clear,290,2013-04-02 11:55:00
7:15 AM,15.8,10.4,79,30.11,10.0,West,5.8,-,N/A,,Clear,280,2013-04-02 12:15:00
7:35 AM,17.6,10.4,73,30.12,10.0,WNW,5.8,-,N/A,,Clear,290,2013-04-02 12:35:00
7:55 AM,19.4,10.4,68,30.12,10.0,WNW,6.9,-,N/A,,Clear,300,2013-04-02 12:55:00
8:15 AM,19.4,12.2,74,30.12,10.0,NW,8.1,-,N/A,,Clear,310,2013-04-02 13:15:00
8:35 AM,21.2,12.2,68,30.13,10.0,NW,8.1,-,N/A,,Clear,320,2013-04-02 13:35:00
8:55 AM,23.0,14.0,68,30.13,10.0,NW,9.2,-,N/A,,Clear,320,2013-04-02 13:55:00
9:15 AM,23.0,14.0,68,30.13,10.0,NW,10.4,-,N/A,,Clear,320,2013-04-02 14:15:00
9:35 AM,24.8,12.2,59,30.13,10.0,NW,9.2,16.1,N/A,,Clear,320,2013-04-02 14:35:00
9:55 AM,26.6,12.2,55,30.13,10.0,NW,8.1,-,N/A,,Clear,320,2013-04-02 14:55:00
10:15 AM,26.6,10.4,51,30.13,10.0,NW,10.4,16.1,N/A,,Scattered Clouds,320,2013-04-02 15:15:00
10:35 AM,26.6,10.4,51,30.13,10.0,NW,11.5,17.3,N/A,,Mostly Cloudy,320,2013-04-02 15:35:00
10:55 AM,28.4,8.6,43,30.14,10.0,NW,17.3,20.7,N/A,,Mostly Cloudy,320,2013-04-02 15:55:00
11:15 AM,28.4,10.4,47,30.14,10.0,NNW,16.1,20.7,N/A,,Overcast,330,2013-04-02 16:15:00
11:55 AM,30.2,8.6,40,30.14,10.0,NW,15.0,24.2,N/A,,Overcast,310,2013-04-02 16:55:00
12:15 PM,30.2,8.6,40,30.14,10.0,NNW,9.2,19.6,N/A,,Mostly Cloudy,340,2013-04-02 17:15:00
12:35 PM,30.2,10.4,44,30.14,10.0,NNW,15.0,21.9,N/A,,Mostly Cloudy,330,2013-04-02 17:35:00
12:55 PM,30.2,10.4,44,30.14,10.0,NNW,15.0,19.6,N/A,,Mostly Cloudy,330,2013-04-02 17:55:00
1:15 PM,32.0,10.4,41,30.14,10.0,WNW,16.1,20.7,N/A,,Mostly Cloudy,290,2013-04-02 18:15:00
1:35 PM,30.2,10.4,44,30.14,10.0,NNW,16.1,20.7,N/A,,Overcast,330,2013-04-02 18:35:00
1:55 PM,30.2,8.6,40,30.14,10.0,NNW,15.0,20.7,N/A,,Mostly Cloudy,330,2013-04-02 18:55:00
2:15 PM,30.2,6.8,37,30.14,10.0,NNW,15.0,-,N/A,,Mostly Cloudy,340,2013-04-02 19:15:00
2:35 PM,30.2,8.6,40,30.15,10.0,NNW,11.5,-,N/A,,Scattered Clouds,340,2013-04-02 19:35:00
2:55 PM,32.0,8.6,38,30.15,10.0,NNW,18.4,23.0,N/A,,Scattered Clouds,330,2013-04-02 19:55:00
3:15 PM,32.0,5.0,32,30.15,10.0,NW,13.8,19.6,N/A,,Scattered Clouds,310,2013-04-02 20:15:00
3:35 PM,32.0,6.8,35,30.14,10.0,NW,9.2,-,N/A,,Scattered Clouds,320,2013-04-02 20:35:00
3:55 PM,32.0,5.0,32,30.15,10.0,NW,10.4,20.7,N/A,,Scattered Clouds,320,2013-04-02 20:55:00
4:15 PM,32.0,3.2,30,30.15,10.0,NW,15.0,24.2,N/A,,Scattered Clouds,310,2013-04-02 21:15:00
4:35 PM,30.2,3.2,32,30.16,10.0,NW,12.7,-,N/A,,Clear,320,2013-04-02 21:35:00
4:55 PM,30.2,3.2,32,30.17,10.0,NW,16.1,20.7,N/A,,Clear,320,2013-04-02 21:55:00
5:15 PM,30.2,3.2,32,30.17,10.0,NW,16.1,19.6,N/A,,Clear,310,2013-04-02 22:15:00
5:35 PM,30.2,3.2,32,30.18,10.0,NNW,16.1,-,N/A,,Clear,330,2013-04-02 22:35:00
5:55 PM,30.2,3.2,32,30.18,10.0,NNW,17.3,-,N/A,,Clear,330,2013-04-02 22:55:00
6:15 PM,30.2,3.2,32,30.18,10.0,NNW,9.2,12.7,N/A,,Clear,340,2013-04-02 23:15:00
6:35 PM,28.4,3.2,34,30.20,10.0,NNW,10.4,-,N/A,,Clear,330,2013-04-02 23:35:00
7:15 PM,26.6,3.2,37,30.20,10.0,NW,9.2,-,N/A,,Clear,320,2013-04-03 00:15:00
7:35 PM,26.6,3.2,37,30.20,10.0,NNW,8.1,-,N/A,,Clear,330,2013-04-03 00:35:00
7:55 PM,26.6,3.2,37,30.21,10.0,NNW,5.8,-,N/A,,Clear,330,2013-04-03 00:55:00
8:15 PM,26.6,3.2,37,30.21,10.0,NNW,5.8,-,N/A,,Clear,330,2013-04-03 01:15:00
8:35 PM,26.6,3.2,37,30.22,10.0,NW,3.5,-,N/A,,Clear,320,2013-04-03 01:35:00
8:55 PM,26.6,3.2,37,30.22,10.0,NW,3.5,-,N/A,,Clear,310,2013-04-03 01:55:00
9:15 PM,26.6,3.2,37,30.22,10.0,NNW,3.5,-,N/A,,Clear,330,2013-04-03 02:15:00
9:35 PM,23.0,5.0,46,30.23,10.0,Calm,Calm,-,N/A,,Clear,0,2013-04-03 02:35:00
9:55 PM,21.2,5.0,50,30.23,10.0,WNW,3.5,-,N/A,,Clear,300,2013-04-03 02:55:00
10:15 PM,21.2,5.0,50,30.23,10.0,Calm,Calm,-,N/A,,Clear,0,2013-04-03 03:15:00
10:35 PM,17.6,6.8,63,30.23,10.0,WNW,3.5,-,N/A,,Clear,290,2013-04-03 03:35:00
10:55 PM,17.6,8.6,68,30.24,10.0,Calm,Calm,-,N/A,,Clear,0,2013-04-03 03:55:00
11:15 PM,15.8,8.6,73,30.24,10.0,Calm,Calm,-,N/A,,Clear,0,2013-04-03 04:15:00
11:35 PM,15.8,6.8,68,30.24,10.0,Calm,Calm,-,N/A,,Clear,0,2013-04-03 04:35:00
11:55 PM,14.0,5.0,67,30.24,10.0,Calm,Calm,-,N/A,,Clear,0,2013-04-03 04:55:00